[[{"header":{"parameterUnit":"m.s-1","parameterCategory":1,"la1":30.2991,"la2":30.254,"lo1":-89.0895,"lo2":-89.0444,"dy":0.0017,"dx":0.0017,"nx":28,"ny":28,"refTime":"2025-08-15T03:00:00:Z","depth":0,"parameterNumber":2,"parameterNumberName":"U-component_of_WINDS"},"data":[0,0,0,0,0,0,0,0,0,0,0,0,0,0,0,0,0,0,0,0,0,0,0,0,0,0,0,0,0,0,0,0,0,0,0,0,0,0,0,0,0,0,0,0,0,0,0,0,0,0,0,0,0,0,0,0,0,0,0.8454,0.8455,0,0.8555,0.8556,0.8557,0.8568,0.8567,0.8566,0.8565,0.8669,0.8673,0.8677,0,0,0,0,0,0,0,0,0,0,0,0,0,0.8274,0.8278,0.8454,0.8455,0.8456,0.8554,0.8556,0.8557,0.8568,0.8567,0.8566,0.8565,0.8668,0.8673,0.8677,0,0,0,0,0,0,0,0,0,0,0,0,0,0.8361,0.8279,0.8454,0.8474,0.8476,0.8554,0.8556,0.8558,0.8569,0.8567,0.8565,0.8564,0.8667,0.8672,0.8678,0.8743,0,0,0.8695,0.8697,0,0,0,0,0,0,0,0,0.8357,0.8368,0.8469,0.8472,0.8476,0.8547,0.8531,0.862,0.8569,0.8534,0.8565,0.8563,0.863,0.8639,0.8661,0.8748,0.8752,0.8695,0.8699,0.8701,0.8703,0,0,0,0,0,0,0,0.835,0.8364,0.8494,0.8471,0.8475,0.8479,0.8489,0.8548,0.8589,0.8537,0.8538,0.8549,0.8632,0.8655,0.8663,0.8754,0.8695,0.87,0.8704,0.8706,0.8902,0.8903,0,0,0,0,0,0,0.834,0.8359,0.8491,0.8497,0.8411,0.8483,0.8495,0.8526,0.8589,0.8597,0.855,0.8549,0.8647,0.8657,0.8667,0.8749,0.8701,0.8706,0.871,0.89,0.8902,0.8904,0,0,0,0,0,0,0.8336,0.8352,0.8487,0.8428,0.8446,0.8488,0.8522,0.8529,0.8553,0.8599,0.8607,0.8567,0.8646,0.8659,0.8724,0.8753,0.8709,0.8714,0.8898,0.8901,0.8903,0.8913,0,0,0,0,0,0,0.8331,0.8351,0.8375,0.8429,0.8449,0.8541,0.8524,0.8532,0.8562,0.8562,0.8617,0.8625,0.8646,0.8716,0.873,0.876,0.8718,0.8895,0.8899,0.8902,0.891,0.8915,0.892,0,0,0,0,0,0.8325,0.8373,0.8376,0.8392,0.848,0.8543,0.8554,0.8577,0.8564,0.859,0.862,0.8623,0.8747,0.8723,0.8738,0.877,0.8894,0.8898,0.8902,0.8908,0.8914,0.892,0,0,0,0,0,0,0.8322,0.8381,0.8384,0.8451,0.8492,0.8545,0.8577,0.8583,0.8629,0.8627,0.8654,0.8666,0.8731,0.8757,0.8728,0.8838,0.8819,0.8827,0.8818,0.8825,0.883,0.8823,0.8723,0,0,0,0,0,0.8329,0.8374,0.8424,0.8478,0.8498,0.8534,0.8563,0.8577,0.8621,0.8638,0.8673,0.8715,0.8765,0.8796,0.8844,0.8914,0.8927,0.8944,0.8949,0.8953,0.8959,0.9,0.9009,0.8918,0.8918,0.8918,0,0,0.8344,0.8382,0.8409,0.8479,0.8512,0.856,0.8549,0.8599,0.8636,0.8646,0.871,0.8737,0.8786,0.8855,0.8887,0.8879,0.8987,0.8958,0.8961,0.8965,0.9005,0.9014,0.9022,0.8921,0.892,0.892,0,0,0.8397,0.8429,0.8479,0.8513,0.8563,0.8587,0.8599,0.8652,0.867,0.8735,0.8744,0.8788,0.8871,0.8907,0.8936,0.9004,0.9009,0.9018,0.9045,0.9085,0.9092,0.9098,0.9124,0.9133,0.9025,0.9025,0.9025,0,0.841,0.8481,0.8504,0.8555,0.8586,0.8598,0.865,0.8681,0.8745,0.8767,0.8757,0.8863,0.8897,0.8975,0.8992,0.9015,0.903,0.9012,0.9089,0.9096,0.9102,0.9127,0.9136,0.9026,0.9025,0.9025,0.9025,0,0.8495,0.8545,0.8579,0.8641,0.8676,0.8727,0.8759,0.8792,0.8804,0.8829,0.8896,0.8937,0.8994,0.9014,0.9025,0.9094,0.9088,0.9083,0.9065,0.9111,0.9135,0.9145,0.9027,0.9027,0.9026,0.9026,0,0,0.8548,0.8622,0.8635,0.8664,0.8721,0.8761,0.8813,0.8869,0.8897,0.8941,0.8987,0.9058,0.9055,0.9087,0.9104,0.9138,0.9192,0.913,0.9131,0.9141,0.9272,0.9276,0.9287,0.9195,0.9197,0.9199,0.9268,0,0.8608,0.8701,0.8724,0.8804,0.8851,0.8864,0.891,0.8951,0.8976,0.9021,0.905,0.91,0.9091,0.9111,0.9146,0.9178,0.9219,0.9173,0.9239,0.9241,0.9227,0.9299,0.9303,0.9367,0.9278,0.9279,0.9281,0,0.869,0.8736,0.882,0.8874,0.8894,0.8935,0.8989,0.9031,0.9079,0.9095,0.9133,0.9146,0.9203,0.9182,0.9261,0.9229,0.9258,0.9278,0.9281,0.9289,0.9264,0.931,0.9387,0.9397,0.9295,0.9294,0.9293,0,0.8722,0.8805,0.8867,0.8891,0.8954,0.8983,0.901,0.9056,0.9089,0.9137,0.9159,0.9212,0.9241,0.9283,0.9311,0.9293,0.9389,0.9369,0.9405,0.9404,0.9425,0.9423,0.9509,0.9442,0.9441,0.9441,0.9441,0,0.8787,0.8839,0.8882,0.892,0.8979,0.9006,0.9064,0.9092,0.9133,0.9178,0.9192,0.9234,0.9268,0.9315,0.9338,0.9401,0.9414,0.9429,0.9435,0.9429,0.9427,0.9448,0.9445,0.9444,0.9443,0.9443,0.9442,0,0.8832,0.8863,0.8932,0.8986,0.9001,0.9043,0.909,0.9128,0.9155,0.9211,0.9226,0.9268,0.9324,0.9356,0.9427,0.9442,0.9513,0.9516,0.9497,0.9499,0.9534,0.9531,0.9637,0.9653,0.9574,0.9574,0.9575,0,0.8872,0.8912,0.8971,0.9002,0.9031,0.908,0.9114,0.9143,0.9177,0.9236,0.9267,0.9324,0.9372,0.9461,0.9499,0.9553,0.9558,0.9592,0.9566,0.956,0.956,0.9558,0.9563,0.9596,0.9597,0.9598,0.9598,0,0.8941,0.8954,0.9002,0.9056,0.9095,0.9139,0.9183,0.9207,0.9244,0.9282,0.934,0.9377,0.945,0.9507,0.9565,0.9594,0.9603,0.9606,0.9617,0.9612,0.96,0.9608,0.951,0.9603,0.9603,0.9602,0.9602,0.9602,0.8986,0.9023,0.907,0.9123,0.9159,0.92,0.9239,0.9271,0.9319,0.9381,0.9395,0.9456,0.9505,0.9584,0.9615,0.9664,0.9658,0.9674,0.9678,0.9682,0.9684,0.9591,0.9675,0.9674,0.9674,0.9674,0.9674,0,0.9056,0.9087,0.9136,0.9196,0.9239,0.9243,0.9292,0.9327,0.9381,0.9425,0.9472,0.9539,0.9595,0.9637,0.9695,0.9726,0.9731,0.974,0.9739,0.9746,0.9685,0.9671,0.9735,0.9735,0.9735,0.9735,0.9735,0.9735,0.9097,0.9161,0.918,0.9262,0.9294,0.9354,0.9382,0.942,0.9455,0.953,0.9577,0.9604,0.9648,0.9709,0.9761,0.9772,0.9793,0.9801,0.9813,0.9756,0.975,0.9744,0.973,0.9805,0.9805,0.987,0.987,0.9871]},{"header":{"parameterUnit":"m.s-1","parameterCategory":1,"la1":30.2991,"la2":30.254,"lo1":-89.0895,"lo2":-89.0444,"dy":0.0017,"dx":0.0017,"nx":28,"ny":28,"refTime":"2025-08-15T03:00:00:Z","depth":0,"parameterNumber":3,"parameterNumberName":"V-component_of_WINDS"},"data":[0,0,0,0,0,0,0,0,0,0,0,0,0,0,0,0,0,0,0,0,0,0,0,0,0,0,0,0,0,0,0,0,0,0,0,0,0,0,0,0,0,0,0,0,0,0,0,0,0,0,0,0,0,0,0,0,0,0,-2.4553,-2.4552,0,-2.4495,-2.4494,-2.4493,-2.444,-2.444,-2.4439,-2.4438,-2.4379,-2.4378,-2.4377,0,0,0,0,0,0,0,0,0,0,0,0,0,-2.462,-2.4619,-2.4553,-2.4552,-2.4551,-2.4495,-2.4494,-2.4493,-2.444,-2.444,-2.4439,-2.4438,-2.4379,-2.4378,-2.4377,0,0,0,0,0,0,0,0,0,0,0,0,0,-2.458,-2.4619,-2.4553,-2.4518,-2.4514,-2.4495,-2.4494,-2.4493,-2.4441,-2.444,-2.4439,-2.4438,-2.4379,-2.4378,-2.4376,-2.4387,0,0,-2.4372,-2.4371,0,0,0,0,0,0,0,0,-2.4582,-2.4577,-2.4524,-2.452,-2.4516,-2.4474,-2.4496,-2.4457,-2.4441,-2.4469,-2.4438,-2.4437,-2.4411,-2.4407,-2.4398,-2.4384,-2.4381,-2.4372,-2.4371,-2.437,-2.437,0,0,0,0,0,0,0,-2.4585,-2.4579,-2.453,-2.4523,-2.4519,-2.4506,-2.45,-2.4488,-2.4446,-2.4466,-2.4462,-2.4456,-2.4409,-2.44,-2.4396,-2.438,-2.4372,-2.437,-2.437,-2.4369,-2.4377,-2.4378,0,0,0,0,0,0,-2.4593,-2.4582,-2.4531,-2.4528,-2.4547,-2.4506,-2.4498,-2.4488,-2.4446,-2.4438,-2.4457,-2.4454,-2.4403,-2.4398,-2.4394,-2.4406,-2.437,-2.4369,-2.4368,-2.4376,-2.4377,-2.4378,0,0,0,0,0,0,-2.4594,-2.4589,-2.4534,-2.4554,-2.4546,-2.4506,-2.4495,-2.4488,-2.4479,-2.4439,-2.4431,-2.4455,-2.4402,-2.4396,-2.439,-2.4404,-2.4368,-2.4367,-2.4374,-2.4376,-2.4378,-2.4429,0,0,0,0,0,0,-2.4597,-2.459,-2.4592,-2.4554,-2.4545,-2.453,-2.4496,-2.4487,-2.4476,-2.4472,-2.4435,-2.4428,-2.4401,-2.4393,-2.4389,-2.4401,-2.4366,-2.4373,-2.4375,-2.4377,-2.4426,-2.4433,-2.4438,0,0,0,0,0,-2.4599,-2.4607,-2.4592,-2.4586,-2.4547,-2.4531,-2.4526,-2.4493,-2.4477,-2.448,-2.4456,-2.443,-2.4403,-2.4392,-2.4387,-2.4399,-2.4372,-2.4375,-2.4377,-2.4424,-2.4431,-2.4438,0,0,0,0,0,0,-2.4646,-2.4602,-2.4584,-2.4581,-2.456,-2.4522,-2.4524,-2.4502,-2.4485,-2.4481,-2.4442,-2.4435,-2.4434,-2.4416,-2.4405,-2.441,-2.4384,-2.4386,-2.4421,-2.4428,-2.4434,-2.4439,-2.4364,0,0,0,0,0,-2.4656,-2.4646,-2.4608,-2.4609,-2.4599,-2.4564,-2.4555,-2.4533,-2.451,-2.4501,-2.4475,-2.4454,-2.4442,-2.4434,-2.4419,-2.4424,-2.4417,-2.443,-2.4436,-2.4441,-2.4443,-2.4448,-2.4455,-2.4386,-2.4386,-2.4386,0,0,-2.4676,-2.4651,-2.4647,-2.4618,-2.4599,-2.4591,-2.4557,-2.4548,-2.4543,-2.4499,-2.4493,-2.4474,-2.4449,-2.4449,-2.4448,-2.4434,-2.4461,-2.4444,-2.4448,-2.4448,-2.4452,-2.4458,-2.4464,-2.4388,-2.4388,-2.4388,0,0,-2.471,-2.4688,-2.4689,-2.4672,-2.4645,-2.4622,-2.4623,-2.4589,-2.4575,-2.4569,-2.4538,-2.4531,-2.4508,-2.4493,-2.4482,-2.4516,-2.4492,-2.4512,-2.4543,-2.4548,-2.4554,-2.4559,-2.4574,-2.4579,-2.4514,-2.4514,-2.4514,0,-2.4738,-2.4724,-2.4691,-2.4687,-2.4676,-2.4639,-2.4641,-2.4626,-2.4595,-2.459,-2.4575,-2.455,-2.4529,-2.4528,-2.4537,-2.4528,-2.453,-2.4516,-2.4556,-2.456,-2.4564,-2.4578,-2.4583,-2.4517,-2.4517,-2.4516,-2.4516,0,-2.4762,-2.4754,-2.4757,-2.4732,-2.4722,-2.472,-2.4689,-2.4683,-2.4663,-2.4643,-2.4639,-2.4614,-2.4596,-2.4594,-2.4573,-2.4591,-2.4584,-2.4563,-2.4536,-2.4574,-2.4587,-2.4591,-2.4521,-2.452,-2.4519,-2.4518,0,0,-2.482,-2.478,-2.4782,-2.4772,-2.4742,-2.4736,-2.4734,-2.4718,-2.4716,-2.4697,-2.4697,-2.4681,-2.4664,-2.4652,-2.4629,-2.4634,-2.4667,-2.4613,-2.4612,-2.4626,-2.469,-2.4707,-2.4713,-2.4652,-2.4653,-2.4653,-2.4693,0,-2.485,-2.4845,-2.4818,-2.4821,-2.4815,-2.4782,-2.4782,-2.4765,-2.4747,-2.474,-2.472,-2.4711,-2.4687,-2.468,-2.4683,-2.4662,-2.468,-2.4659,-2.4653,-2.4653,-2.4662,-2.4719,-2.4736,-2.4775,-2.4697,-2.4698,-2.4699,0,-2.4882,-2.4869,-2.4873,-2.4849,-2.4845,-2.4845,-2.4831,-2.4824,-2.4805,-2.4792,-2.4782,-2.4758,-2.4757,-2.4733,-2.4733,-2.472,-2.4716,-2.4706,-2.4707,-2.4705,-2.4679,-2.4722,-2.4786,-2.4793,-2.4706,-2.4705,-2.4705,0,-2.4928,-2.4911,-2.4912,-2.4904,-2.4875,-2.4876,-2.4864,-2.4845,-2.4839,-2.4826,-2.4823,-2.481,-2.4804,-2.4796,-2.4771,-2.4754,-2.4775,-2.4747,-2.4766,-2.4767,-2.4771,-2.4772,-2.4838,-2.4767,-2.4767,-2.4767,-2.4766,0,-2.4964,-2.4968,-2.4933,-2.4934,-2.4939,-2.4909,-2.4916,-2.49,-2.4885,-2.4883,-2.4854,-2.4853,-2.4819,-2.4816,-2.4796,-2.4801,-2.4798,-2.4789,-2.4784,-2.4792,-2.4794,-2.479,-2.4787,-2.4768,-2.4768,-2.4767,-2.4767,0,-2.5015,-2.4991,-2.4991,-2.4965,-2.4959,-2.4964,-2.4942,-2.4943,-2.4925,-2.4925,-2.4923,-2.4895,-2.489,-2.4864,-2.4852,-2.4839,-2.4853,-2.4841,-2.4859,-2.4856,-2.4877,-2.4877,-2.4944,-2.4953,-2.4875,-2.4876,-2.4876,0,-2.504,-2.5043,-2.5019,-2.5017,-2.5007,-2.5003,-2.4998,-2.497,-2.4967,-2.4949,-2.4953,-2.4946,-2.4939,-2.4933,-2.4913,-2.4905,-2.4894,-2.4919,-2.4893,-2.4903,-2.4898,-2.4899,-2.4901,-2.4924,-2.4925,-2.4926,-2.4927,0,-2.5088,-2.5078,-2.5072,-2.5063,-2.5059,-2.505,-2.504,-2.504,-2.501,-2.5008,-2.5003,-2.4998,-2.4989,-2.4984,-2.4973,-2.4962,-2.4941,-2.4936,-2.494,-2.4949,-2.4961,-2.4958,-2.4876,-2.4934,-2.4933,-2.4933,-2.4932,-2.4932,-2.5128,-2.5131,-2.5117,-2.5112,-2.5103,-2.5095,-2.5097,-2.5081,-2.5077,-2.5068,-2.5052,-2.5052,-2.5038,-2.5022,-2.5013,-2.5013,-2.5,-2.5006,-2.5008,-2.501,-2.5016,-2.496,-2.5011,-2.5011,-2.5011,-2.501,-2.501,0,-2.5177,-2.5168,-2.5164,-2.5153,-2.5151,-2.5132,-2.5122,-2.5121,-2.5121,-2.5111,-2.5106,-2.5104,-2.51,-2.5081,-2.5076,-2.508,-2.507,-2.5079,-2.5079,-2.5078,-2.5026,-2.5024,-2.5088,-2.5088,-2.5088,-2.5088,-2.5088,-2.5088,-2.5202,-2.5209,-2.5198,-2.52,-2.519,-2.519,-2.5186,-2.5181,-2.5173,-2.5172,-2.517,-2.5158,-2.5145,-2.514,-2.5137,-2.5131,-2.5132,-2.5145,-2.5137,-2.5088,-2.5081,-2.5074,-2.5072,-2.5145,-2.5145,-2.5189,-2.5189,-2.519]}]]